Hourly Weather Rechytsa

Today, 9 August, Sunday

Time Temperature Precipitation Wind Pressure Humidity
00:00 +18°C° 0 mm 2 mps 753 mmHg 91%
01:00 +17°C° 0 mm 2 mps 753 mmHg 92%
02:00 +18°C° 0 mm 1 mps 753 mmHg 93%
03:00 +18°C° 0 mm 1 mps 753 mmHg 94%
04:00 +18°C° 0 mm 1 mps 753 mmHg 94%
05:00 +16°C° 0 mm 1 mps 753 mmHg 95%
06:00 +19°C° 0 mm 1 mps 753 mmHg 88%
07:00 +21°C° 0 mm 1 mps 753 mmHg 81%
08:00 +23°C° 0 mm 2 mps 753 mmHg 74%
09:00 +24°C° 0 mm 2 mps 753 mmHg 68%
10:00 +26°C° 0 mm 2 mps 753 mmHg 61%
11:00 +27°C° 0 mm 2 mps 753 mmHg 55%
12:00 +27°C° 0.1 mm 2 mps 752 mmHg 55%
13:00 +27°C° 0.1 mm 2 mps 752 mmHg 54%
14:00 +28°C° 0.1 mm 3 mps 752 mmHg 54%
15:00 +27°C° 0.1 mm 3 mps 752 mmHg 57%
16:00 +27°C° 0.1 mm 2 mps 751 mmHg 59%
17:00 +26°C° 0.1 mm 2 mps 751 mmHg 62%
18:00 +25°C° 0 mm 2 mps 751 mmHg 69%
19:00 +23°C° 0 mm 2 mps 751 mmHg 76%
20:00 +20°C° 0 mm 2 mps 751 mmHg 84%
21:00 +19°C° 0.2 mm 2 mps 751 mmHg 86%
22:00 +19°C° 0.2 mm 2 mps 751 mmHg 89%
23:00 +19°C° 0.2 mm 1 mps 751 mmHg 91%

Tomorrow, 10 August, Monday

Time Temperature Precipitation Wind Pressure Humidity
00:00 +19°C° 0.3 mm 1 mps 751 mmHg 92%
01:00 +19°C° 0.3 mm 1 mps 751 mmHg 92%
02:00 +19°C° 0.3 mm 1 mps 751 mmHg 93%
03:00 +18°C° 0 mm 1 mps 751 mmHg 93%
04:00 +18°C° 0 mm 1 mps 751 mmHg 93%
05:00 +18°C° 0 mm 1 mps 751 mmHg 93%
06:00 +20°C° 0 mm 1 mps 751 mmHg 89%
07:00 +21°C° 0 mm 1 mps 751 mmHg 84%
08:00 +21°C° 0 mm 2 mps 751 mmHg 80%
09:00 +24°C° 0.4 mm 2 mps 751 mmHg 73%
10:00 +25°C° 0.4 mm 1 mps 751 mmHg 67%
11:00 +26°C° 0.4 mm 1 mps 751 mmHg 61%
12:00 +27°C° 0.3 mm 1 mps 751 mmHg 58%
13:00 +27°C° 0.3 mm 1 mps 751 mmHg 55%
14:00 +28°C° 0.3 mm 1 mps 750 mmHg 52%
15:00 +27°C° 0.1 mm 1 mps 750 mmHg 55%
16:00 +27°C° 0.1 mm 1 mps 750 mmHg 57%
17:00 +27°C° 0.1 mm 2 mps 750 mmHg 60%
18:00 +25°C° 0.1 mm 1 mps 750 mmHg 67%
19:00 +23°C° 0.1 mm 1 mps 750 mmHg 74%
20:00 +21°C° 0.1 mm 1 mps 750 mmHg 81%
21:00 +21°C° 0.1 mm 1 mps 750 mmHg 83%
22:00 +20°C° 0.1 mm 1 mps 750 mmHg 86%
23:00 +20°C° 0.1 mm 1 mps 750 mmHg 89%

Day after tomorrow, 11 August, Tuesday

Time Temperature Precipitation Wind Pressure Humidity
00:00 +19°C° 0 mm 1 mps 750 mmHg 90%
01:00 +19°C° 0 mm 1 mps 750 mmHg 91%
02:00 +18°C° 0 mm 2 mps 750 mmHg 92%
03:00 +17°C° 0 mm 2 mps 750 mmHg 93%
04:00 +17°C° 0 mm 2 mps 750 mmHg 94%
05:00 +17°C° 0 mm 2 mps 750 mmHg 95%
06:00 +18°C° 0 mm 2 mps 750 mmHg 90%
07:00 +20°C° 0 mm 3 mps 750 mmHg 86%
08:00 +21°C° 0 mm 3 mps 750 mmHg 81%
09:00 +22°C° 0.1 mm 3 mps 750 mmHg 74%
10:00 +25°C° 0.1 mm 4 mps 750 mmHg 67%
11:00 +26°C° 0.1 mm 4 mps 750 mmHg 59%
12:00 +26°C° 0 mm 4 mps 750 mmHg 57%
13:00 +26°C° 0 mm 4 mps 750 mmHg 55%
14:00 +27°C° 0 mm 5 mps 750 mmHg 53%
15:00 +26°C° 0 mm 4 mps 750 mmHg 55%
16:00 +25°C° 0 mm 4 mps 750 mmHg 57%
17:00 +23°C° 0 mm 4 mps 750 mmHg 59%
18:00 +22°C° 0 mm 4 mps 750 mmHg 66%
19:00 +20°C° 0 mm 4 mps 751 mmHg 72%
20:00 +18°C° 0 mm 4 mps 751 mmHg 79%
21:00 +17°C° 0 mm 3 mps 751 mmHg 80%
22:00 +16°C° 0 mm 3 mps 751 mmHg 82%
23:00 +14°C° 0 mm 3 mps 752 mmHg 84%

12 August, Wednesday

Time Temperature Precipitation Wind Pressure Humidity
00:00 +13°C° 0 mm 3 mps 752 mmHg 86%
01:00 +12°C° 0 mm 3 mps 752 mmHg 88%
02:00 +12°C° 0 mm 2 mps 752 mmHg 90%
03:00 +12°C° 0 mm 2 mps 752 mmHg 91%
04:00 +12°C° 0 mm 2 mps 752 mmHg 92%
05:00 +12°C° 0 mm 2 mps 752 mmHg 94%
06:00 +12°C° 0 mm 3 mps 752 mmHg 88%
07:00 +13°C° 0 mm 3 mps 753 mmHg 82%
08:00 +14°C° 0 mm 3 mps 753 mmHg 76%
09:00 +16°C° 0 mm 3 mps 753 mmHg 71%
10:00 +17°C° 0 mm 3 mps 753 mmHg 66%
11:00 +17°C° 0 mm 3 mps 753 mmHg 62%
12:00 +18°C° 0 mm 4 mps 753 mmHg 61%
13:00 +18°C° 0 mm 4 mps 753 mmHg 60%
14:00 +19°C° 0 mm 4 mps 753 mmHg 60%
15:00 +19°C° 0.1 mm 4 mps 753 mmHg 64%
16:00 +18°C° 0.1 mm 3 mps 753 mmHg 68%
17:00 +18°C° 0.1 mm 3 mps 753 mmHg 71%
18:00 +17°C° 0 mm 3 mps 753 mmHg 76%
19:00 +15°C° 0 mm 2 mps 753 mmHg 80%
20:00 +14°C° 0 mm 2 mps 753 mmHg 85%
21:00 +14°C° 0 mm 2 mps 754 mmHg 87%
22:00 +13°C° 0 mm 2 mps 754 mmHg 89%
23:00 +12°C° 0 mm 2 mps 754 mmHg 91%

13 August, Thursday

Time Temperature Precipitation Wind Pressure Humidity
00:00 +12°C° 0 mm 2 mps 754 mmHg 92%
01:00 +12°C° 0 mm 2 mps 754 mmHg 93%
02:00 +10°C° 0 mm 2 mps 754 mmHg 93%
03:00 +10°C° 0 mm 2 mps 754 mmHg 94%
04:00 +11°C° 0 mm 1 mps 754 mmHg 94%
05:00 +11°C° 0 mm 1 mps 754 mmHg 94%
06:00 +12°C° 0 mm 1 mps 754 mmHg 87%
07:00 +14°C° 0 mm 1 mps 754 mmHg 79%
08:00 +16°C° 0 mm 1 mps 754 mmHg 72%
09:00 +18°C° 0 mm 2 mps 754 mmHg 65%
10:00 +19°C° 0 mm 2 mps 754 mmHg 59%
11:00 +20°C° 0 mm 2 mps 754 mmHg 53%
12:00 +20°C° 0 mm 2 mps 754 mmHg 54%
13:00 +20°C° 0 mm 2 mps 754 mmHg 54%
14:00 +20°C° 0 mm 2 mps 753 mmHg 55%
15:00 +20°C° 0 mm 2 mps 753 mmHg 57%
16:00 +21°C° 0 mm 1 mps 753 mmHg 59%
17:00 +21°C° 0 mm 1 mps 753 mmHg 61%
18:00 +19°C° 0 mm 1 mps 753 mmHg 65%
19:00 +18°C° 0 mm 1 mps 753 mmHg 69%
20:00 +14°C° 0 mm 0 mps 753 mmHg 73%
21:00 +14°C° 0 mm 0 mps 753 mmHg 76%
22:00 +13°C° 0 mm 0 mps 753 mmHg 78%
23:00 +12°C° 0 mm 0 mps 753 mmHg 81%

14 August, Friday

Time Temperature Precipitation Wind Pressure Humidity
00:00 +12°C° 0 mm 0 mps 753 mmHg 82%
01:00 +12°C° 0 mm 0 mps 753 mmHg 83%
02:00 +12°C° 0 mm 1 mps 753 mmHg 85%
03:00 +12°C° 0 mm 1 mps 753 mmHg 86%
04:00 +11°C° 0 mm 0 mps 753 mmHg 87%
05:00 +10°C° 0 mm 0 mps 753 mmHg 88%
06:00 +12°C° 0 mm 0 mps 753 mmHg 81%
07:00 +15°C° 0 mm 0 mps 753 mmHg 74%
08:00 +17°C° 0 mm 0 mps 753 mmHg 66%
09:00 +18°C° 0 mm 0 mps 753 mmHg 61%
10:00 +22°C° 0 mm 1 mps 753 mmHg 56%
11:00 +24°C° 0 mm 1 mps 753 mmHg 51%
12:00 +24°C° 0 mm 1 mps 753 mmHg 49%
13:00 +24°C° 0 mm 1 mps 752 mmHg 47%
14:00 +24°C° 0 mm 1 mps 752 mmHg 45%
15:00 +24°C° 0 mm 1 mps 752 mmHg 48%
16:00 +24°C° 0 mm 1 mps 752 mmHg 50%
17:00 +24°C° 0 mm 1 mps 752 mmHg 52%
18:00 +22°C° 0 mm 1 mps 752 mmHg 58%
19:00 +20°C° 0 mm 1 mps 752 mmHg 64%
20:00 +16°C° 0 mm 0 mps 752 mmHg 70%
21:00 +15°C° 0 mm 0 mps 752 mmHg 73%
22:00 +14°C° 0 mm 0 mps 752 mmHg 76%
23:00 +14°C° 0 mm 0 mps 752 mmHg 78%
Show more